SF153 KDEN-KEGE

Flight info

Callsign SF153
Flight time N/A
Altitude 18498
Route DENVER3 ELORE DOBEE
Aircraft B350/L-SDFG/C

Departure

Time 2026-05-08 03:55
Airport Denver International Airport (KDEN)

Arrival

Time N/A
Airport Eagle County Regional Airport (KEGE)
Time Latitude Longitude Altitude Speed Heading
2026-05-08 03:24 39.85445 -104.67425 5435 ft 0 kts 215°
2026-05-08 03:44 39.85443 -104.67442 5435 ft 0 kts 312°
2026-05-08 03:44 39.85468 -104.67452 5435 ft 16 kts 345°
2026-05-08 03:44 39.85629 -104.67527 5435 ft 14 kts 287°
2026-05-08 03:45 39.85634 -104.67691 5435 ft 30 kts 276°
2026-05-08 03:45 39.85660 -104.68042 5435 ft 44 kts 273°
2026-05-08 03:45 39.85678 -104.68227 5435 ft 0 kts 280°
2026-05-08 03:50 39.85686 -104.68339 5435 ft 26 kts 251°
2026-05-08 03:50 39.85565 -104.68410 5435 ft 26 kts 176°
2026-05-08 03:50 39.85320 -104.68403 5435 ft 44 kts 181°
2026-05-08 03:50 39.85159 -104.68464 5435 ft 11 kts 239°
2026-05-08 03:51 39.85188 -104.68583 5435 ft 25 kts 283°
2026-05-08 03:51 39.85192 -104.68840 5435 ft 5 kts 268°
2026-05-08 03:51 39.85192 -104.68866 5435 ft 14 kts 272°
2026-05-08 03:51 39.85198 -104.69104 5435 ft 37 kts 271°
2026-05-08 03:52 39.85203 -104.69454 5435 ft 29 kts 269°
2026-05-08 03:52 39.85202 -104.69492 5435 ft 0 kts 270°
2026-05-08 03:52 39.85202 -104.69493 5435 ft 0 kts 270°
2026-05-08 03:53 39.85202 -104.69511 5435 ft 12 kts 270°
2026-05-08 03:53 39.85219 -104.69642 5435 ft 17 kts 339°
2026-05-08 03:53 39.85255 -104.69641 5435 ft 0 kts 358°
2026-05-08 03:54 39.85256 -104.69641 5435 ft 2 kts 358°
2026-05-08 03:54 39.85585 -104.69650 5436 ft 100 kts 358°
2026-05-08 03:54 39.86833 -104.69652 5798 ft 156 kts 360°
2026-05-08 03:54 39.87938 -104.70142 5981 ft 180 kts 321°
2026-05-08 03:55 39.88568 -104.71525 6442 ft 182 kts 282°
2026-05-08 03:55 39.88457 -104.73159 6883 ft 190 kts 255°
2026-05-08 03:55 39.88181 -104.74303 7206 ft 198 kts 251°
2026-05-08 03:55 39.87696 -104.76021 7669 ft 206 kts 249°
2026-05-08 03:56 39.87061 -104.77706 8116 ft 211 kts 231°
2026-05-08 03:56 39.85881 -104.78818 8580 ft 213 kts 205°
2026-05-08 03:56 39.84602 -104.79744 9036 ft 205 kts 226°
2026-05-08 03:56 39.83902 -104.81261 9537 ft 194 kts 257°
2026-05-08 03:57 39.83744 -104.82982 10043 ft 190 kts 268°
2026-05-08 03:57 39.83733 -104.84694 10542 ft 189 kts 270°
2026-05-08 03:57 39.83735 -104.86401 11042 ft 188 kts 270°
2026-05-08 03:57 39.83722 -104.88079 11534 ft 188 kts 269°
2026-05-08 03:58 39.83692 -104.89774 12034 ft 187 kts 268°
2026-05-08 03:58 39.83648 -104.91465 12534 ft 186 kts 268°
2026-05-08 03:58 39.83595 -104.93152 13034 ft 186 kts 268°
2026-05-08 03:58 39.83536 -104.94839 13534 ft 186 kts 267°
2026-05-08 03:59 39.83473 -104.96526 14035 ft 186 kts 267°
2026-05-08 03:59 39.83407 -104.98214 14536 ft 187 kts 267°
2026-05-08 03:59 39.83339 -104.99906 15037 ft 187 kts 267°
2026-05-08 03:59 39.83271 -105.01596 15537 ft 187 kts 267°
2026-05-08 04:00 39.83201 -105.03294 16038 ft 188 kts 267°
2026-05-08 04:00 39.83131 -105.04976 16533 ft 188 kts 267°
2026-05-08 04:00 39.83057 -105.06731 17048 ft 189 kts 267°
2026-05-08 04:00 39.82987 -105.08407 17539 ft 189 kts 267°
2026-05-08 04:01 39.82913 -105.10150 17860 ft 200 kts 267°
2026-05-08 04:01 39.82835 -105.12009 17942 ft 213 kts 267°
2026-05-08 04:01 39.82754 -105.13978 17952 ft 222 kts 267°
2026-05-08 04:01 39.82669 -105.16026 17950 ft 228 kts 267°
2026-05-08 04:02 39.82583 -105.18097 17948 ft 231 kts 267°
2026-05-08 04:02 39.82495 -105.20176 17947 ft 234 kts 267°
2026-05-08 04:02 39.82405 -105.22295 17946 ft 236 kts 267°
2026-05-08 04:02 39.82303 -105.24430 17945 ft 237 kts 264°
2026-05-08 04:03 39.81900 -105.26521 17946 ft 239 kts 252°
2026-05-08 04:03 39.80620 -105.30541 17945 ft 241 kts 248°
2026-05-08 04:03 39.79956 -105.32544 17945 ft 241 kts 249°
2026-05-08 04:04 39.79190 -105.34933 17945 ft 242 kts 250°
2026-05-08 04:04 39.78677 -105.36580 17945 ft 242 kts 250°
2026-05-08 04:04 39.78055 -105.38623 17945 ft 242 kts 250°
2026-05-08 04:04 39.77447 -105.40659 17945 ft 242 kts 251°
2026-05-08 04:05 39.76843 -105.42702 17945 ft 242 kts 251°
2026-05-08 04:05 39.76255 -105.44711 17945 ft 242 kts 251°
2026-05-08 04:05 39.75649 -105.46788 17945 ft 242 kts 251°
2026-05-08 04:05 39.75053 -105.48837 17945 ft 242 kts 251°
2026-05-08 04:06 39.74460 -105.50881 17945 ft 242 kts 251°
2026-05-08 04:06 39.73864 -105.52933 17945 ft 242 kts 251°
2026-05-08 04:06 39.73272 -105.54975 17945 ft 242 kts 251°
2026-05-08 04:06 39.72676 -105.57027 17945 ft 242 kts 251°
2026-05-08 04:07 39.72083 -105.59070 17945 ft 242 kts 251°
2026-05-08 04:07 39.71504 -105.61130 17943 ft 242 kts 255°
2026-05-08 04:07 39.71225 -105.63272 17946 ft 241 kts 265°
2026-05-08 04:07 39.71138 -105.65447 17946 ft 241 kts 268°
2026-05-08 04:08 39.71101 -105.67617 17892 ft 243 kts 269°
2026-05-08 04:08 39.71060 -105.69873 17481 ft 256 kts 268°
2026-05-08 04:08 39.70998 -105.72228 17069 ft 265 kts 268°
2026-05-08 04:08 39.70918 -105.74641 16653 ft 269 kts 267°
2026-05-08 04:09 39.70822 -105.77081 16237 ft 271 kts 267°
2026-05-08 04:09 39.70716 -105.79499 15826 ft 272 kts 267°
2026-05-08 04:09 39.70602 -105.81952 15409 ft 272 kts 266°